Regional Weather Roundup
Issued by NWS State College, PA

Home | Current Version | Previous Version | Text Only | Print | Product List | Glossary On
Versions: 1 2 3 4 5 6 7 8 9 10 11 12 13 14 15 16 17 18 19 20 21 22 23 24 25 26 27 28 29 30 31 32 33 34 35 36 37 38 39 40 41 42 43 44 45 46 47 48 49 50
000
ASUS41 KCTP 211510
RWRCTP

REGIONAL WEATHER ROUNDUP
NATIONAL WEATHER SERVICE STATE COLLEGE PA
1100 AM EDT MON APR 21 2014

Note: "fair" indicates few or no clouds below 12,000 feet with no
significant weather and/or obstructions to visibility.

* = STATION THAT DOES NOT REPORT PRECIPITATION /E.G. RAIN...SNOW...ETC/
    THUNDER OR FOG.

PAZ002>004-007>009-013>016-020>023-029>032-211600-
WESTERN PENNSYLVANIA

CITY           SKY/WX    TMP DP  RH WIND       PRES   REMARKS
ERIE           MOSUNNY   70  30  22 S9        30.02F
MEADVILLE      SUNNY     65  31  28 VRB3      30.04F
FRANKLIN*      SUNNY     64  34  32 S6        30.08F
NEW CASTLE     FAIR      67  34  29 CALM      30.06F
BEAVER COUNTY  SUNNY     68  34  28 SW5       30.05F
BUTLER*        SUNNY     64  34  32 W3        30.08F
PITTSBURGH INT PTSUNNY   68  34  28 S3        30.06F
PITTSBURGH     SUNNY     66  32  28 SW3       30.06F
INDIANA*       SUNNY     66  30  26 W3        30.08F
LATROBE        SUNNY     66  34  30 SW12      30.09
WASHINGTON CO* SUNNY     70  34  26 W6        30.09S
$$

PAZ004>006-010>012-017>019-024>028-033>037-041-042-045-046-049>053-211600-
CENTRAL PENNSYLVANIA

CITY           SKY/WX    TMP DP  RH WIND       PRES   REMARKS
BRADFORD       SUNNY     62  28  27 S5        30.07F
DUBOIS         SUNNY     64  31  28 CALM      30.07F
CLEARFIELD     SUNNY     60  34  37 CALM      30.10F
JOHNSTOWN      SUNNY     60  31  33 VRB3      30.09F
ALTOONA        SUNNY     58  37  45 S8        30.12F
STATE COLLEGE  SUNNY     57  32  38 S12       30.12F
WILLIAMSPORT   SUNNY     58  33  39 NE7       30.13F
SELINSGROVE    SUNNY     56  33  42 S6        30.15F
FT INDIANTOWN  MOSUNNY   55  28  35 VRB5      30.17F
CAPITAL CITY   SUNNY     54  29  38 CALM      30.17F
HARRISBURG     SUNNY     56  26  31 VRB5      30.16F
YORK           SUNNY     55  27  34 E3        30.17F
$$

PAZ038>040-043-044-047-048-054-055-060>062-067>071-211600-
EASTERN PENNSYLVANIA

CITY           SKY/WX    TMP DP  RH WIND       PRES   REMARKS
SCRANTON       SUNNY     56  28  34 W9G18     30.13F
MOUNT POCONO   SUNNY     57  20  23 VRB6      30.12F
ALLENTOWN      SUNNY     53  19  26 VRB3      30.17F
QUAKERTOWN*    SUNNY     55  19  24 S3        30.17F
READING        SUNNY     55  15  20 CALM      30.16F
LANCASTER      SUNNY     53  23  31 CALM      30.17F
COATESVILLE    SUNNY     55  19  24 CALM      30.17F
POTTSTOWN      SUNNY     54  21  27 CALM      30.18F
BLUE BELL      SUNNY     57  23  26 CALM      30.16F
DOYLESTOWN     SUNNY     54  22  28 CALM      30.16F
WILLOW GROVE   NOT AVBL
NORTH PHILA    SUNNY     57  27  31 CALM      30.19F
PHILADELPHIA   MOSUNNY   56  31  38 CALM      30.18F
$$



USA.gov is the U.S. government's official web portal to all federal, state and local government web resources and services.